owner,sensor,date,latitude,longitude,vertical_datum,mass_concentration_of_oxygen_in_sea_water,qcFlag 
DISL,ioos:station:DISL:MHPA:1,2011-04-01T00:00:00Z,30.6671,-87.9365,3.196,8.6,1111122 
DISL,ioos:station:DISL:MHPA:1,2011-04-01T00:30:00Z,30.6671,-87.9365,3.247,8.66,1111122 
DISL,ioos:station:DISL:MHPA:1,2011-04-01T01:00:00Z,30.6671,-87.9365,3.379,8.68,1111122 
DISL,ioos:station:DISL:MHPA:1,2011-04-01T01:30:00Z,30.6671,-87.9365,3.467,8.63,1111122 
DISL,ioos:station:DISL:MHPA:1,2011-04-01T02:00:00Z,30.6671,-87.9365,3.607,8.53,1111122 
DISL,ioos:station:DISL:MHPA:1,2011-04-01T02:30:00Z,30.6671,-87.9365,3.79,8.34,1111122 
DISL,ioos:station:DISL:MHPA:1,2011-04-01T03:00:00Z,30.6671,-87.9365,3.792,8.48,1111122 
DISL,ioos:station:DISL:MHPA:1,2011-04-01T03:30:00Z,30.6671,-87.9365,3.835,8.16,1111122 
DISL,ioos:station:DISL:MHPA:1,2011-04-01T04:00:00Z,30.6671,-87.9365,3.88,8.21,1111122 
DISL,ioos:station:DISL:MHPA:1,2011-04-01T04:30:00Z,30.6671,-87.9365,3.884,8.21,1111122 
DISL,ioos:station:DISL:MHPA:1,2011-04-01T05:00:00Z,30.6671,-87.9365,3.902,8.19,1111122 
DISL,ioos:station:DISL:MHPA:1,2011-04-01T05:30:00Z,30.6671,-87.9365,3.949,7.94,1111122 
DISL,ioos:station:DISL:MHPA:1,2011-04-01T06:00:00Z,30.6671,-87.9365,3.941,7.76,1111122 
DISL,ioos:station:DISL:MHPA:1,2011-04-01T06:30:00Z,30.6671,-87.9365,3.908,8.04,1111122 
DISL,ioos:station:DISL:MHPA:1,2011-04-01T07:00:00Z,30.6671,-87.9365,3.903,7.62,1111122 
DISL,ioos:station:DISL:MHPA:1,2011-04-01T07:30:00Z,30.6671,-87.9365,3.871,7.43,1111122 
DISL,ioos:station:DISL:MHPA:1,2011-04-01T08:00:00Z,30.6671,-87.9365,3.776,7.66,1111122 
DISL,ioos:station:DISL:MHPA:1,2011-04-01T08:30:00Z,30.6671,-87.9365,3.76,7.49,1111122 
DISL,ioos:station:DISL:MHPA:1,2011-04-01T09:00:00Z,30.6671,-87.9365,3.743,7.37,1111122 
DISL,ioos:station:DISL:MHPA:1,2011-04-01T09:30:00Z,30.6671,-87.9365,3.623,7.58,1111122 
DISL,ioos:station:DISL:MHPA:1,2011-04-01T10:00:00Z,30.6671,-87.9365,3.481,7.36,1111122 
DISL,ioos:station:DISL:MHPA:1,2011-04-01T10:30:00Z,30.6671,-87.9365,3.394,7.39,1111122 
DISL,ioos:station:DISL:MHPA:1,2011-04-01T11:00:00Z,30.6671,-87.9365,3.348,7.16,1111122 
DISL,ioos:station:DISL:MHPA:1,2011-04-01T11:30:00Z,30.6671,-87.9365,3.317,7.25,1111122 
DISL,ioos:station:DISL:MHPA:1,2011-04-01T12:00:00Z,30.6671,-87.9365,3.324,7.13,1111122 
DISL,ioos:station:DISL:MHPA:1,2011-04-01T12:30:00Z,30.6671,-87.9365,3.355,7.45,1111122 
DISL,ioos:station:DISL:MHPA:1,2011-04-01T13:00:00Z,30.6671,-87.9365,3.429,7.56,1111122 
DISL,ioos:station:DISL:MHPA:1,2011-04-01T13:30:00Z,30.6671,-87.9365,3.493,7.62,1111122 
DISL,ioos:station:DISL:MHPA:1,2011-04-01T14:00:00Z,30.6671,-87.9365,3.587,7.74,1111122 
DISL,ioos:station:DISL:MHPA:1,2011-04-01T14:30:00Z,30.6671,-87.9365,3.66,7.9,1111122 
DISL,ioos:station:DISL:MHPA:1,2011-04-01T15:00:00Z,30.6671,-87.9365,3.711,7.92,1111122 
DISL,ioos:station:DISL:MHPA:1,2011-04-01T15:30:00Z,30.6671,-87.9365,3.799,7.78,1111122 
DISL,ioos:station:DISL:MHPA:1,2011-04-01T16:00:00Z,30.6671,-87.9365,3.886,7.61,1111122 
DISL,ioos:station:DISL:MHPA:1,2011-04-01T16:30:00Z,30.6671,-87.9365,3.854,7.8,1111122 
DISL,ioos:station:DISL:MHPA:1,2011-04-01T17:00:00Z,30.6671,-87.9365,3.81,8.19,1111122 
DISL,ioos:station:DISL:MHPA:1,2011-04-01T17:30:00Z,30.6671,-87.9365,3.787,8.39,1111122 
DISL,ioos:station:DISL:MHPA:1,2011-04-01T18:00:00Z,30.6671,-87.9365,3.723,8.54,1111122 
DISL,ioos:station:DISL:MHPA:1,2011-04-01T18:30:00Z,30.6671,-87.9365,3.611,8.58,1111122 
DISL,ioos:station:DISL:MHPA:1,2011-04-01T19:00:00Z,30.6671,-87.9365,3.616,8.86,1111122 
DISL,ioos:station:DISL:MHPA:1,2011-04-01T19:30:00Z,30.6671,-87.9365,3.659,8.96,1111122 
DISL,ioos:station:DISL:MHPA:1,2011-04-01T20:00:00Z,30.6671,-87.9365,3.595,8.93,1111122 
DISL,ioos:station:DISL:MHPA:1,2011-04-01T20:30:00Z,30.6671,-87.9365,3.607,8.79,1111122 
DISL,ioos:station:DISL:MHPA:1,2011-04-01T21:00:00Z,30.6671,-87.9365,3.572,8.75,1111122 
DISL,ioos:station:DISL:MHPA:1,2011-04-01T21:30:00Z,30.6671,-87.9365,3.566,8.79,1111122 
DISL,ioos:station:DISL:MHPA:1,2011-04-01T22:00:00Z,30.6671,-87.9365,3.609,8.88,1111122 
DISL,ioos:station:DISL:MHPA:1,2011-04-01T22:30:00Z,30.6671,-87.9365,3.604,8.93,1111122 
DISL,ioos:station:DISL:MHPA:1,2011-04-01T23:00:00Z,30.6671,-87.9365,3.552,8.81,1111122 
DISL,ioos:station:DISL:MHPA:1,2011-04-01T23:30:00Z,30.6671,-87.9365,3.511,9.07,1111122 
DISL,ioos:station:DISL:MHPA:1,2011-04-02T00:00:00Z,30.6671,-87.9365,3.486,8.91,1111122 
DISL,ioos:station:DISL:MHPA:1,2011-04-02T00:30:00Z,30.6671,-87.9365,3.481,8.85,1111122 
DISL,ioos:station:DISL:MHPA:1,2011-04-02T01:00:00Z,30.6671,-87.9365,3.479,8.75,1111122 
DISL,ioos:station:DISL:MHPA:1,2011-04-02T01:30:00Z,30.6671,-87.9365,3.424,8.5,1111122 
DISL,ioos:station:DISL:MHPA:1,2011-04-02T02:00:00Z,30.6671,-87.9365,3.392,8.45,1111122 
DISL,ioos:station:DISL:MHPA:1,2011-04-02T02:30:00Z,30.6671,-87.9365,3.41,8.56,1111122 
DISL,ioos:station:DISL:MHPA:1,2011-04-02T03:00:00Z,30.6671,-87.9365,3.442,8.27,1111122 
DISL,ioos:station:DISL:MHPA:1,2011-04-02T03:30:00Z,30.6671,-87.9365,3.473,8.14,1111122 
DISL,ioos:station:DISL:MHPA:1,2011-04-02T04:00:00Z,30.6671,-87.9365,3.527,8.32,1111122 
DISL,ioos:station:DISL:MHPA:1,2011-04-02T04:30:00Z,30.6671,-87.9365,3.543,8.37,1111122 
DISL,ioos:station:DISL:MHPA:1,2011-04-02T05:00:00Z,30.6671,-87.9365,3.573,8.31,1111122 
DISL,ioos:station:DISL:MHPA:1,2011-04-02T05:30:00Z,30.6671,-87.9365,3.636,8.51,1111122 
DISL,ioos:station:DISL:MHPA:1,2011-04-02T06:00:00Z,30.6671,-87.9365,3.675,8.43,1111122 
DISL,ioos:station:DISL:MHPA:1,2011-04-02T06:30:00Z,30.6671,-87.9365,3.657,8.3,1111122 
DISL,ioos:station:DISL:MHPA:1,2011-04-02T07:00:00Z,30.6671,-87.9365,3.636,8.34,1111122 
DISL,ioos:station:DISL:MHPA:1,2011-04-02T07:30:00Z,30.6671,-87.9365,3.625,8.16,1111122 
DISL,ioos:station:DISL:MHPA:1,2011-04-02T08:00:00Z,30.6671,-87.9365,3.622,8.16,1111122 
DISL,ioos:station:DISL:MHPA:1,2011-04-02T08:30:00Z,30.6671,-87.9365,3.618,8.06,1111122 
DISL,ioos:station:DISL:MHPA:1,2011-04-02T09:00:00Z,30.6671,-87.9365,3.563,7.98,1111122 
DISL,ioos:station:DISL:MHPA:1,2011-04-02T09:30:00Z,30.6671,-87.9365,3.465,7.97,1111122 
DISL,ioos:station:DISL:MHPA:1,2011-04-02T10:00:00Z,30.6671,-87.9365,3.399,8.03,1111122 
DISL,ioos:station:DISL:MHPA:1,2011-04-02T10:30:00Z,30.6671,-87.9365,3.344,7.88,1111122 
DISL,ioos:station:DISL:MHPA:1,2011-04-02T11:00:00Z,30.6671,-87.9365,3.292,8.22,1111122 
DISL,ioos:station:DISL:MHPA:1,2011-04-02T11:30:00Z,30.6671,-87.9365,3.242,8.29,1111122 
DISL,ioos:station:DISL:MHPA:1,2011-04-02T12:00:00Z,30.6671,-87.9365,3.199,8.13,1111122 
DISL,ioos:station:DISL:MHPA:1,2011-04-02T12:30:00Z,30.6671,-87.9365,3.157,8.03,1111122 
DISL,ioos:station:DISL:MHPA:1,2011-04-02T13:00:00Z,30.6671,-87.9365,3.179,7.91,1111122 
DISL,ioos:station:DISL:MHPA:1,2011-04-02T13:30:00Z,30.6671,-87.9365,3.183,8.04,1111122 
DISL,ioos:station:DISL:MHPA:1,2011-04-02T14:00:00Z,30.6671,-87.9365,3.269,8.14,1111122 
DISL,ioos:station:DISL:MHPA:1,2011-04-02T14:30:00Z,30.6671,-87.9365,3.306,8.12,1111122 
DISL,ioos:station:DISL:MHPA:1,2011-04-02T15:00:00Z,30.6671,-87.9365,3.366,8.18,1111122 
DISL,ioos:station:DISL:MHPA:1,2011-04-02T15:30:00Z,30.6671,-87.9365,3.41,8.12,1111122 
DISL,ioos:station:DISL:MHPA:1,2011-04-02T16:00:00Z,30.6671,-87.9365,3.483,8.22,1111122 
DISL,ioos:station:DISL:MHPA:1,2011-04-02T16:30:00Z,30.6671,-87.9365,3.477,8.79,1111122 
DISL,ioos:station:DISL:MHPA:1,2011-04-02T17:00:00Z,30.6671,-87.9365,3.469,8.46,1111122 
DISL,ioos:station:DISL:MHPA:1,2011-04-02T17:30:00Z,30.6671,-87.9365,3.478,8.7,1111122 
DISL,ioos:station:DISL:MHPA:1,2011-04-02T18:00:00Z,30.6671,-87.9365,3.475,9.04,1111122 
DISL,ioos:station:DISL:MHPA:1,2011-04-02T18:30:00Z,30.6671,-87.9365,3.469,8.95,1111122 
DISL,ioos:station:DISL:MHPA:1,2011-04-02T19:00:00Z,30.6671,-87.9365,3.463,8.94,1111122 
DISL,ioos:station:DISL:MHPA:1,2011-04-02T19:30:00Z,30.6671,-87.9365,3.496,8.9,1111122 
DISL,ioos:station:DISL:MHPA:1,2011-04-02T20:00:00Z,30.6671,-87.9365,3.602,9.06,1111122 
DISL,ioos:station:DISL:MHPA:1,2011-04-02T20:30:00Z,30.6671,-87.9365,3.505,9.09,1111122 
DISL,ioos:station:DISL:MHPA:1,2011-04-02T21:00:00Z,30.6671,-87.9365,3.437,9.16,1111122 
DISL,ioos:station:DISL:MHPA:1,2011-04-02T21:30:00Z,30.6671,-87.9365,3.404,9.35,1111122 
DISL,ioos:station:DISL:MHPA:1,2011-04-02T22:00:00Z,30.6671,-87.9365,3.355,9.12,1111122 
DISL,ioos:station:DISL:MHPA:1,2011-04-02T22:30:00Z,30.6671,-87.9365,3.287,9.17,1111122 
DISL,ioos:station:DISL:MHPA:1,2011-04-02T23:00:00Z,30.6671,-87.9365,3.175,9.24,1111122 
DISL,ioos:station:DISL:MHPA:1,2011-04-02T23:30:00Z,30.6671,-87.9365,3.081,9.28,1111122 
DISL,ioos:station:DISL:MHPA:1,2011-04-03T00:00:00Z,30.6671,-87.9365,3.001,9.08,1111122 
DISL,ioos:station:DISL:MHPA:1,2011-04-03T00:30:00Z,30.6671,-87.9365,2.945,9.09,1111122 
DISL,ioos:station:DISL:MHPA:1,2011-04-03T01:00:00Z,30.6671,-87.9365,2.909,8.89,1111122 
DISL,ioos:station:DISL:MHPA:1,2011-04-03T01:30:00Z,30.6671,-87.9365,2.861,8.79,1111122 
DISL,ioos:station:DISL:MHPA:1,2011-04-03T02:00:00Z,30.6671,-87.9365,2.834,8.61,1111122 
DISL,ioos:station:DISL:MHPA:1,2011-04-03T02:30:00Z,30.6671,-87.9365,2.823,8.36,1111122 
DISL,ioos:station:DISL:MHPA:1,2011-04-03T03:00:00Z,30.6671,-87.9365,2.874,8.37,1111122 
DISL,ioos:station:DISL:MHPA:1,2011-04-03T03:30:00Z,30.6671,-87.9365,2.929,8.28,1111122 
DISL,ioos:station:DISL:MHPA:1,2011-04-03T04:00:00Z,30.6671,-87.9365,2.992,8.36,1111122 
DISL,ioos:station:DISL:MHPA:1,2011-04-03T04:30:00Z,30.6671,-87.9365,3.018,8.22,1111122 
DISL,ioos:station:DISL:MHPA:1,2011-04-03T05:00:00Z,30.6671,-87.9365,3.072,8.1,1111122 
DISL,ioos:station:DISL:MHPA:1,2011-04-03T05:30:00Z,30.6671,-87.9365,3.181,8.25,1111122 
DISL,ioos:station:DISL:MHPA:1,2011-04-03T06:00:00Z,30.6671,-87.9365,3.253,8.0,1111122 
DISL,ioos:station:DISL:MHPA:1,2011-04-03T06:30:00Z,30.6671,-87.9365,3.334,8.03,1111122 
DISL,ioos:station:DISL:MHPA:1,2011-04-03T07:00:00Z,30.6671,-87.9365,3.379,7.98,1111122 
DISL,ioos:station:DISL:MHPA:1,2011-04-03T07:30:00Z,30.6671,-87.9365,3.381,8.1,1111122 
DISL,ioos:station:DISL:MHPA:1,2011-04-03T08:00:00Z,30.6671,-87.9365,3.405,7.96,1111122 
DISL,ioos:station:DISL:MHPA:1,2011-04-03T08:30:00Z,30.6671,-87.9365,3.429,7.95,1111122 
DISL,ioos:station:DISL:MHPA:1,2011-04-03T09:00:00Z,30.6671,-87.9365,3.462,7.86,1111122 
DISL,ioos:station:DISL:MHPA:1,2011-04-03T09:30:00Z,30.6671,-87.9365,3.446,7.96,1111122 
DISL,ioos:station:DISL:MHPA:1,2011-04-03T10:00:00Z,30.6671,-87.9365,3.412,7.99,1111122 
DISL,ioos:station:DISL:MHPA:1,2011-04-03T10:30:00Z,30.6671,-87.9365,3.404,7.96,1111122 
DISL,ioos:station:DISL:MHPA:1,2011-04-03T11:00:00Z,30.6671,-87.9365,3.365,7.93,1111122 
DISL,ioos:station:DISL:MHPA:1,2011-04-03T11:30:00Z,30.6671,-87.9365,3.344,7.85,1111122 
DISL,ioos:station:DISL:MHPA:1,2011-04-03T12:00:00Z,30.6671,-87.9365,3.315,7.76,1111122 
DISL,ioos:station:DISL:MHPA:1,2011-04-03T12:30:00Z,30.6671,-87.9365,3.3,7.81,1111122 
DISL,ioos:station:DISL:MHPA:1,2011-04-03T13:00:00Z,30.6671,-87.9365,3.292,7.59,1111122 
DISL,ioos:station:DISL:MHPA:1,2011-04-03T13:30:00Z,30.6671,-87.9365,3.326,7.62,1111122 
DISL,ioos:station:DISL:MHPA:1,2011-04-03T14:00:00Z,30.6671,-87.9365,3.383,7.4,1111122 
DISL,ioos:station:DISL:MHPA:1,2011-04-03T14:30:00Z,30.6671,-87.9365,3.424,7.51,1111122 
DISL,ioos:station:DISL:MHPA:1,2011-04-03T15:00:00Z,30.6671,-87.9365,3.533,7.54,1111122 
DISL,ioos:station:DISL:MHPA:1,2011-04-03T15:30:00Z,30.6671,-87.9365,3.678,7.87,1111122 
DISL,ioos:station:DISL:MHPA:1,2011-04-03T16:00:00Z,30.6671,-87.9365,3.791,7.93,1111122 
DISL,ioos:station:DISL:MHPA:1,2011-04-03T16:30:00Z,30.6671,-87.9365,3.962,8.17,1111122 
DISL,ioos:station:DISL:MHPA:1,2011-04-03T17:00:00Z,30.6671,-87.9365,4.009,8.27,1111122 
DISL,ioos:station:DISL:MHPA:1,2011-04-03T17:30:00Z,30.6671,-87.9365,4.02,8.41,1111122 
DISL,ioos:station:DISL:MHPA:1,2011-04-03T18:00:00Z,30.6671,-87.9365,4.025,8.71,1111122 
DISL,ioos:station:DISL:MHPA:1,2011-04-03T18:30:00Z,30.6671,-87.9365,3.956,9.02,1111122 
DISL,ioos:station:DISL:MHPA:1,2011-04-03T19:00:00Z,30.6671,-87.9365,3.96,9.09,1111122 
DISL,ioos:station:DISL:MHPA:1,2011-04-03T19:30:00Z,30.6671,-87.9365,3.938,9.27,1111122 
DISL,ioos:station:DISL:MHPA:1,2011-04-03T20:00:00Z,30.6671,-87.9365,3.89,9.14,1111122 
DISL,ioos:station:DISL:MHPA:1,2011-04-03T20:30:00Z,30.6671,-87.9365,3.821,8.95,1111122 
DISL,ioos:station:DISL:MHPA:1,2011-04-03T21:00:00Z,30.6671,-87.9365,3.748,8.94,1111122 
DISL,ioos:station:DISL:MHPA:1,2011-04-03T21:30:00Z,30.6671,-87.9365,3.671,9.07,1111122 
DISL,ioos:station:DISL:MHPA:1,2011-04-03T22:00:00Z,30.6671,-87.9365,3.564,9.26,1111122 
DISL,ioos:station:DISL:MHPA:1,2011-04-03T22:30:00Z,30.6671,-87.9365,3.46,9.25,1111122 
DISL,ioos:station:DISL:MHPA:1,2011-04-03T23:00:00Z,30.6671,-87.9365,3.356,9.24,1111122 
DISL,ioos:station:DISL:MHPA:1,2011-04-03T23:30:00Z,30.6671,-87.9365,3.284,9.27,1111122 
DISL,ioos:station:DISL:MHPA:1,2011-04-04T00:00:00Z,30.6671,-87.9365,3.201,9.08,1111122 
DISL,ioos:station:DISL:MHPA:1,2011-04-04T00:30:00Z,30.6671,-87.9365,3.102,8.96,1111122 
DISL,ioos:station:DISL:MHPA:1,2011-04-04T01:00:00Z,30.6671,-87.9365,3.025,9.14,1111122 
DISL,ioos:station:DISL:MHPA:1,2011-04-04T01:30:00Z,30.6671,-87.9365,2.976,9.06,1111122 
DISL,ioos:station:DISL:MHPA:1,2011-04-04T02:00:00Z,30.6671,-87.9365,2.941,8.78,1111122 
DISL,ioos:station:DISL:MHPA:1,2011-04-04T02:30:00Z,30.6671,-87.9365,2.926,8.6,1111122 
DISL,ioos:station:DISL:MHPA:1,2011-04-04T03:00:00Z,30.6671,-87.9365,2.962,8.69,1111122 
DISL,ioos:station:DISL:MHPA:1,2011-04-04T03:30:00Z,30.6671,-87.9365,3.019,8.68,1111122 
DISL,ioos:station:DISL:MHPA:1,2011-04-04T04:00:00Z,30.6671,-87.9365,3.1,8.74,1111122 
DISL,ioos:station:DISL:MHPA:1,2011-04-04T04:30:00Z,30.6671,-87.9365,3.211,8.67,1111122 
DISL,ioos:station:DISL:MHPA:1,2011-04-04T05:00:00Z,30.6671,-87.9365,3.297,8.42,1111122 
DISL,ioos:station:DISL:MHPA:1,2011-04-04T05:30:00Z,30.6671,-87.9365,3.406,8.46,1111122 
DISL,ioos:station:DISL:MHPA:1,2011-04-04T06:00:00Z,30.6671,-87.9365,3.525,8.51,1111122 
DISL,ioos:station:DISL:MHPA:1,2011-04-04T06:30:00Z,30.6671,-87.9365,3.678,8.51,1111122 
DISL,ioos:station:DISL:MHPA:1,2011-04-04T07:00:00Z,30.6671,-87.9365,3.847,8.49,1111122 
DISL,ioos:station:DISL:MHPA:1,2011-04-04T07:30:00Z,30.6671,-87.9365,3.918,8.49,1111122 
DISL,ioos:station:DISL:MHPA:1,2011-04-04T08:00:00Z,30.6671,-87.9365,3.958,8.38,1111122 
DISL,ioos:station:DISL:MHPA:1,2011-04-04T08:30:00Z,30.6671,-87.9365,4.03,8.44,1111122 
DISL,ioos:station:DISL:MHPA:1,2011-04-04T09:00:00Z,30.6671,-87.9365,4.082,8.26,1111122 
DISL,ioos:station:DISL:MHPA:1,2011-04-04T09:30:00Z,30.6671,-87.9365,4.182,8.19,1111122 
DISL,ioos:station:DISL:MHPA:1,2011-04-04T10:00:00Z,30.6671,-87.9365,4.199,8.16,1111122 
DISL,ioos:station:DISL:MHPA:1,2011-04-04T10:30:00Z,30.6671,-87.9365,4.243,8.18,1111122 
DISL,ioos:station:DISL:MHPA:1,2011-04-04T11:00:00Z,30.6671,-87.9365,4.265,8.19,1111122 
DISL,ioos:station:DISL:MHPA:1,2011-04-04T11:30:00Z,30.6671,-87.9365,4.265,7.99,1111122 
DISL,ioos:station:DISL:MHPA:1,2011-04-04T12:00:00Z,30.6671,-87.9365,4.339,8.08,1111122 
DISL,ioos:station:DISL:MHPA:1,2011-04-04T12:30:00Z,30.6671,-87.9365,4.317,8.02,1111122 
DISL,ioos:station:DISL:MHPA:1,2011-04-04T13:00:00Z,30.6671,-87.9365,4.352,8.06,1111122 
DISL,ioos:station:DISL:MHPA:1,2011-04-04T13:30:00Z,30.6671,-87.9365,4.393,8.23,1111122 
DISL,ioos:station:DISL:MHPA:1,2011-04-04T14:00:00Z,30.6671,-87.9365,4.495,8.11,1111122 
DISL,ioos:station:DISL:MHPA:1,2011-04-04T14:30:00Z,30.6671,-87.9365,4.572,8.32,1111122 
DISL,ioos:station:DISL:MHPA:1,2011-04-04T15:00:00Z,30.6671,-87.9365,4.715,8.27,1111122 
DISL,ioos:station:DISL:MHPA:1,2011-04-04T15:30:00Z,30.6671,-87.9365,4.786,8.32,1111122 
DISL,ioos:station:DISL:MHPA:1,2011-04-04T16:00:00Z,30.6671,-87.9365,4.785,8.28,1111122 
DISL,ioos:station:DISL:MHPA:1,2011-04-04T16:30:00Z,30.6671,-87.9365,4.749,8.29,1111122 
DISL,ioos:station:DISL:MHPA:1,2011-04-04T17:00:00Z,30.6671,-87.9365,4.799,8.36,1111122 
DISL,ioos:station:DISL:MHPA:1,2011-04-04T17:30:00Z,30.6671,-87.9365,4.784,8.29,1111122 
DISL,ioos:station:DISL:MHPA:1,2011-04-04T18:00:00Z,30.6671,-87.9365,4.685,8.4,1111122 
DISL,ioos:station:DISL:MHPA:1,2011-04-04T18:30:00Z,30.6671,-87.9365,4.621,8.44,1111122 
DISL,ioos:station:DISL:MHPA:1,2011-04-04T19:00:00Z,30.6671,-87.9365,4.568,8.33,1111122 
DISL,ioos:station:DISL:MHPA:1,2011-04-04T19:30:00Z,30.6671,-87.9365,4.557,8.49,1111122 
DISL,ioos:station:DISL:MHPA:1,2011-04-04T20:00:00Z,30.6671,-87.9365,4.47,8.66,1111122 
DISL,ioos:station:DISL:MHPA:1,2011-04-04T20:30:00Z,30.6671,-87.9365,4.333,8.75,1111122 
DISL,ioos:station:DISL:MHPA:1,2011-04-04T21:00:00Z,30.6671,-87.9365,4.255,8.95,1111122 
DISL,ioos:station:DISL:MHPA:1,2011-04-04T21:30:00Z,30.6671,-87.9365,4.193,8.94,1111122 
DISL,ioos:station:DISL:MHPA:1,2011-04-04T22:00:00Z,30.6671,-87.9365,4.092,8.77,1111122 
DISL,ioos:station:DISL:MHPA:1,2011-04-04T22:30:00Z,30.6671,-87.9365,4.0,8.59,1111122 
DISL,ioos:station:DISL:MHPA:1,2011-04-04T23:00:00Z,30.6671,-87.9365,3.97,8.8,1111122 
DISL,ioos:station:DISL:MHPA:1,2011-04-04T23:30:00Z,30.6671,-87.9365,3.924,8.68,1111122 
DISL,ioos:station:DISL:MHPA:1,2011-04-05T00:00:00Z,30.6671,-87.9365,3.958,8.73,1111122 
DISL,ioos:station:DISL:MHPA:1,2011-04-05T00:30:00Z,30.6671,-87.9365,3.969,8.66,1111122 
DISL,ioos:station:DISL:MHPA:1,2011-04-05T01:00:00Z,30.6671,-87.9365,4.039,8.6,1111122 
DISL,ioos:station:DISL:MHPA:1,2011-04-05T01:30:00Z,30.6671,-87.9365,4.089,8.51,1111122 
DISL,ioos:station:DISL:MHPA:1,2011-04-05T02:00:00Z,30.6671,-87.9365,4.331,8.45,1111122 
DISL,ioos:station:DISL:MHPA:1,2011-04-05T02:30:00Z,30.6671,-87.9365,4.638,8.43,1111122 
DISL,ioos:station:DISL:MHPA:1,2011-04-05T03:00:00Z,30.6671,-87.9365,4.484,8.61,1111122 
DISL,ioos:station:DISL:MHPA:1,2011-04-05T03:30:00Z,30.6671,-87.9365,4.094,8.66,1111122 
DISL,ioos:station:DISL:MHPA:1,2011-04-05T04:00:00Z,30.6671,-87.9365,3.743,8.57,1111122 
DISL,ioos:station:DISL:MHPA:1,2011-04-05T04:30:00Z,30.6671,-87.9365,3.494,8.49,1111122 
DISL,ioos:station:DISL:MHPA:1,2011-04-05T05:00:00Z,30.6671,-87.9365,3.146,8.52,1111122 
DISL,ioos:station:DISL:MHPA:1,2011-04-05T05:30:00Z,30.6671,-87.9365,2.878,8.54,1111122 
DISL,ioos:station:DISL:MHPA:1,2011-04-05T06:00:00Z,30.6671,-87.9365,2.696,8.46,1111122 
DISL,ioos:station:DISL:MHPA:1,2011-04-05T06:30:00Z,30.6671,-87.9365,2.565,8.6,1111122 
DISL,ioos:station:DISL:MHPA:1,2011-04-05T07:00:00Z,30.6671,-87.9365,2.49,8.48,1111122 
DISL,ioos:station:DISL:MHPA:1,2011-04-05T07:30:00Z,30.6671,-87.9365,2.401,8.57,1111122 
DISL,ioos:station:DISL:MHPA:1,2011-04-05T08:00:00Z,30.6671,-87.9365,2.315,8.64,1111122 
DISL,ioos:station:DISL:MHPA:1,2011-04-05T08:30:00Z,30.6671,-87.9365,2.221,8.54,1111122 
DISL,ioos:station:DISL:MHPA:1,2011-04-05T09:00:00Z,30.6671,-87.9365,2.135,8.64,1111122 
DISL,ioos:station:DISL:MHPA:1,2011-04-05T09:30:00Z,30.6671,-87.9365,2.068,8.56,1111122 
DISL,ioos:station:DISL:MHPA:1,2011-04-05T10:00:00Z,30.6671,-87.9365,2.013,8.61,1111122 
DISL,ioos:station:DISL:MHPA:1,2011-04-05T10:30:00Z,30.6671,-87.9365,1.967,8.62,1111122 
DISL,ioos:station:DISL:MHPA:1,2011-04-05T11:00:00Z,30.6671,-87.9365,1.942,8.57,1111122 
DISL,ioos:station:DISL:MHPA:1,2011-04-05T11:30:00Z,30.6671,-87.9365,1.967,8.57,1111122 
DISL,ioos:station:DISL:MHPA:1,2011-04-05T12:00:00Z,30.6671,-87.9365,1.986,8.59,1111122 
DISL,ioos:station:DISL:MHPA:1,2011-04-05T12:30:00Z,30.6671,-87.9365,1.974,8.33,1111122 
DISL,ioos:station:DISL:MHPA:1,2011-04-05T13:00:00Z,30.6671,-87.9365,1.979,8.41,1111122 
DISL,ioos:station:DISL:MHPA:1,2011-04-05T13:30:00Z,30.6671,-87.9365,2.007,8.27,1111122 
DISL,ioos:station:DISL:MHPA:1,2011-04-05T14:00:00Z,30.6671,-87.9365,2.087,8.49,1111122 
DISL,ioos:station:DISL:MHPA:1,2011-04-05T14:30:00Z,30.6671,-87.9365,2.17,8.44,1111122 
DISL,ioos:station:DISL:MHPA:1,2011-04-05T15:00:00Z,30.6671,-87.9365,2.194,8.42,1111122 
DISL,ioos:station:DISL:MHPA:1,2011-04-05T15:30:00Z,30.6671,-87.9365,2.21,8.48,1111122 
DISL,ioos:station:DISL:MHPA:1,2011-04-05T16:00:00Z,30.6671,-87.9365,2.333,8.59,1111122 
DISL,ioos:station:DISL:MHPA:1,2011-04-05T16:30:00Z,30.6671,-87.9365,2.55,8.68,1111122 
DISL,ioos:station:DISL:MHPA:1,2011-04-05T17:00:00Z,30.6671,-87.9365,2.835,8.76,1111122 
DISL,ioos:station:DISL:MHPA:1,2011-04-05T17:30:00Z,30.6671,-87.9365,3.097,8.86,1111122 
DISL,ioos:station:DISL:MHPA:1,2011-04-05T18:00:00Z,30.6671,-87.9365,3.302,8.88,1111122 
DISL,ioos:station:DISL:MHPA:1,2011-04-05T18:30:00Z,30.6671,-87.9365,3.402,8.87,1111122 
DISL,ioos:station:DISL:MHPA:1,2011-04-05T19:00:00Z,30.6671,-87.9365,3.53,8.93,1111122 
DISL,ioos:station:DISL:MHPA:1,2011-04-05T19:30:00Z,30.6671,-87.9365,3.557,8.89,1111122 
DISL,ioos:station:DISL:MHPA:1,2011-04-05T20:00:00Z,30.6671,-87.9365,3.667,9.1,1111122 
DISL,ioos:station:DISL:MHPA:1,2011-04-05T20:30:00Z,30.6671,-87.9365,3.734,9.25,1111122 
DISL,ioos:station:DISL:MHPA:1,2011-04-05T21:00:00Z,30.6671,-87.9365,3.726,9.14,1111122 
DISL,ioos:station:DISL:MHPA:1,2011-04-05T21:30:00Z,30.6671,-87.9365,3.704,9.32,1111122 
DISL,ioos:station:DISL:MHPA:1,2011-04-05T22:00:00Z,30.6671,-87.9365,3.649,9.25,1111122 
DISL,ioos:station:DISL:MHPA:1,2011-04-05T22:30:00Z,30.6671,-87.9365,3.559,9.15,1111122 
DISL,ioos:station:DISL:MHPA:1,2011-04-05T23:00:00Z,30.6671,-87.9365,3.464,8.92,1111122 
DISL,ioos:station:DISL:MHPA:1,2011-04-05T23:30:00Z,30.6671,-87.9365,3.364,9.2,1111122 
DISL,ioos:station:DISL:MHPA:1,2011-04-06T00:00:00Z,30.6671,-87.9365,3.257,9.12,1111122 
DISL,ioos:station:DISL:MHPA:1,2011-04-06T00:30:00Z,30.6671,-87.9365,3.178,9.15,1111122 
DISL,ioos:station:DISL:MHPA:1,2011-04-06T01:00:00Z,30.6671,-87.9365,3.103,9.02,1111122 
DISL,ioos:station:DISL:MHPA:1,2011-04-06T01:30:00Z,30.6671,-87.9365,3.037,8.99,1111122 
DISL,ioos:station:DISL:MHPA:1,2011-04-06T02:00:00Z,30.6671,-87.9365,2.98,9.01,1111122 
DISL,ioos:station:DISL:MHPA:1,2011-04-06T02:30:00Z,30.6671,-87.9365,2.905,9.0,1111122 
DISL,ioos:station:DISL:MHPA:1,2011-04-06T03:00:00Z,30.6671,-87.9365,2.835,8.88,1111122 
DISL,ioos:station:DISL:MHPA:1,2011-04-06T03:30:00Z,30.6671,-87.9365,2.753,8.72,1111122 
DISL,ioos:station:DISL:MHPA:1,2011-04-06T04:00:00Z,30.6671,-87.9365,2.688,8.82,1111122 
DISL,ioos:station:DISL:MHPA:1,2011-04-06T04:30:00Z,30.6671,-87.9365,2.638,8.75,1111122 
DISL,ioos:station:DISL:MHPA:1,2011-04-06T05:00:00Z,30.6671,-87.9365,2.592,8.7,1111122 
DISL,ioos:station:DISL:MHPA:1,2011-04-06T05:30:00Z,30.6671,-87.9365,2.537,8.59,1111122 
DISL,ioos:station:DISL:MHPA:1,2011-04-06T06:00:00Z,30.6671,-87.9365,2.482,8.43,1111122 
DISL,ioos:station:DISL:MHPA:1,2011-04-06T06:30:00Z,30.6671,-87.9365,2.434,8.4,1111122 
DISL,ioos:station:DISL:MHPA:1,2011-04-06T07:00:00Z,30.6671,-87.9365,2.416,8.39,1111122 
DISL,ioos:station:DISL:MHPA:1,2011-04-06T07:30:00Z,30.6671,-87.9365,2.415,8.36,1111122 
DISL,ioos:station:DISL:MHPA:1,2011-04-06T08:00:00Z,30.6671,-87.9365,2.418,8.28,1111122 
DISL,ioos:station:DISL:MHPA:1,2011-04-06T08:30:00Z,30.6671,-87.9365,2.46,8.24,1111122 
DISL,ioos:station:DISL:MHPA:1,2011-04-06T09:00:00Z,30.6671,-87.9365,2.513,8.16,1111122 
DISL,ioos:station:DISL:MHPA:1,2011-04-06T09:30:00Z,30.6671,-87.9365,2.606,7.96,1111122 
DISL,ioos:station:DISL:MHPA:1,2011-04-06T10:00:00Z,30.6671,-87.9365,2.728,7.95,1111122 
DISL,ioos:station:DISL:MHPA:1,2011-04-06T10:30:00Z,30.6671,-87.9365,2.796,7.93,1111122 
DISL,ioos:station:DISL:MHPA:1,2011-04-06T11:00:00Z,30.6671,-87.9365,2.867,8.01,1111122 
DISL,ioos:station:DISL:MHPA:1,2011-04-06T11:30:00Z,30.6671,-87.9365,2.981,7.83,1111122 
DISL,ioos:station:DISL:MHPA:1,2011-04-06T12:00:00Z,30.6671,-87.9365,3.123,7.93,1111122 
DISL,ioos:station:DISL:MHPA:1,2011-04-06T12:30:00Z,30.6671,-87.9365,3.184,7.76,1111122 
DISL,ioos:station:DISL:MHPA:1,2011-04-06T13:00:00Z,30.6671,-87.9365,3.251,8.01,1111122 
DISL,ioos:station:DISL:MHPA:1,2011-04-06T13:30:00Z,30.6671,-87.9365,3.352,8.09,1111122 
DISL,ioos:station:DISL:MHPA:1,2011-04-06T14:00:00Z,30.6671,-87.9365,3.46,7.94,1111122 
DISL,ioos:station:DISL:MHPA:1,2011-04-06T14:30:00Z,30.6671,-87.9365,3.537,8.06,1111122 
DISL,ioos:station:DISL:MHPA:1,2011-04-06T15:00:00Z,30.6671,-87.9365,3.649,7.98,1111122 
DISL,ioos:station:DISL:MHPA:1,2011-04-06T15:30:00Z,30.6671,-87.9365,3.83,8.18,1111122 